Notices

What's New in latest Release from April 7th, 2021:

- Updated Glossary, including Speed of Maximum Gust, and Total Hourly Precipitation

- Updated national and regional climate services offices contacts and prices information

- Addition of station inventory lists for 1981-2010, 1971-2000, and 1961-1990 Normals.

If you haven't already, please take our survey and provide feedback about our website: https://eccc.sondage-survey.ca/f/LanguageSelection.aspx?s=442ca660-fcf1-47c0-95a9-59707d6fd709

Hourly Data Report for July 05, 2020

TORONTO CITY
ONTARIO
Current Station Operator: ECCC - MSC

43°40'00.000" N
79°24'00.000" W
112.50 m
6158355
71508
XTO

Download Data

Hourly Data (July 2020)
Hourly Data Report for July 5, 2020
TIME
LST
Temp Definition
°C
Dew Point Definition
°C
Rel Hum Definition
%
Precip. Amount Definition
mm

Wind Dir Definition
10's deg

Wind Spd Definition
km/h
Visibility Definition
km
Stn Press Definition
kPa
Hmdx Definition


Wind Chill Definition


Weather Definition


00:00 23.0 7.6 37 0.0       100.17     LegendNANA
01:00 21.4 7.3 40 0.0       100.16     LegendNANA
02:00 20.1 7.9 45 0.0       100.17     LegendNANA
03:00 19.7 8.7 49 0.0       100.15     LegendNANA
04:00 20.0 8.8 48 0.0       100.17     LegendNANA
05:00 19.2 8.2 49 0.0       100.20     LegendNANA
06:00 19.9 10.0 53 0.0       100.21     LegendNANA
07:00 23.4 9.9 42 0.0       100.23 25   LegendNANA
08:00 25.3 6.3 30 0.0       100.25 25   LegendNANA
09:00 26.9 6.0 26 0.0       100.24 27   LegendNANA
10:00 29.1 7.2 25 0.0       100.23 29   LegendNANA
11:00 29.6 6.3 23 0.0       100.23 29   LegendNANA
12:00 30.7 7.8 24 0.0       100.21 31   LegendNANA
13:00 29.5 7.8 26 0.0       100.17 30   LegendNANA
14:00 31.8 8.7 24 0.0       100.14 33   LegendNANA
15:00 31.7 9.4 25 0.0       100.10 33   LegendNANA
16:00 32.7 8.3 22 0.0       100.03 33   LegendNANA
17:00 31.7 8.1 23 0.2       100.02 32   LegendNANA
18:00 30.9 9.6 27 0.2       100.08 32   LegendNANA
19:00 30.3 11.5 31 0.0       100.10 32   LegendNANA
20:00 29.0 12.4 36 0.0       100.11 31   LegendNANA
21:00 27.8 12.7 39 0.0       100.16 30   LegendNANA
22:00 26.0 13.4 46 0.0       100.19 29   LegendNANA
23:00 25.8 13.8 47 0.0       100.18 29   LegendNANA

Notes on Data Quality.

Legend

  • E = Estimated
  • M = Missing
  • NA = Not Available*
  • [empty] = Indicates an unobserved value
Date modified: